Regional Weather Roundup
Issued by NWS

Home | Current Version | Previous Version | Text Only | Print | Product List | Glossary On
Versions: 1 2 3 4 5 6 7 8 9 10 11 12 13 14 15 16 17 18 19 20 21 22 23 24 25 26 27 28 29 30 31 32 33 34 35 36 37 38 39 40 41 42 43 44 45 46 47 48 49 50
000
ASUS45 KCYS 270910
RWRWY

WYOMING REGIONAL WEATHER ROUNDUP
NATIONAL WEATHER SERVICE CHEYENNE WY
200 AM MST SAT DEC 27 2014

NOTE:  "FAIR" INDICATES FEW OR NO CLOUDS BELOW 12,000 FEET
WITH NO SIGNIFICANT WEATHER AND/OR OBSTRUCTIONS TO VISIBILITY.

WYZ001-271000-
YELLOWSTONE NATIONAL PARK

CITY           SKY/WX    TMP DP  RH WIND       PRES   REMARKS
LK YELLOWSTONE   N/A    -10 -14  82 CALM      30.05R
W YELLOWSTONE  NOT AVBL

$$
WYZ002>013-054>058-071-098>099-271000-
NORTHERN WYOMING

CITY           SKY/WX    TMP DP  RH WIND       PRES   REMARKS
JACKSON        FAIR      -6  -8  92 N12       30.11R WCI -24
CODY           FAIR       9   5  85 CALM      30.05S
GREYBULL       CLOUDY     4   2  91 SE5       30.16S WCI  -5
WORLAND        FOG        2  -1  88 SW5       30.14S VSB 3/4 WCI  -8
SHERIDAN       FAIR       3  -1  83 CALM      30.10S
BUFFALO        FAIR      13   5  70 NW3       30.06S
GILLETTE       FAIR      11   7  84 SW6       30.08S WCI   1
HULETT           N/A    N/A N/A N/A MISG        N/A
NEWCASTLE      PTSUNNY   12   9  85 N8        30.11R WCI   1

$$
WYZ014>020-022>026-101>103-271000-
CENTRAL WYOMING

CITY           SKY/WX    TMP DP  RH WIND       PRES   REMARKS
BIG PINEY      CLOUDY     5   2  87 CALM      30.08R
PINEDALE       PTSUNNY    1   1 100 CALM      30.08R
DUBOIS         NOT AVBL
LANDER         CLOUDY    13   6  74 SW3       30.07F
RIVERTON       CLOUDY    12   8  84 SW6       30.09S WCI   3
CASPER         CLOUDY     7   4  87 W9        30.09S WCI  -7
DOUGLAS        FAIR       4  -1  80 NW12      30.11R WCI -12

$$
WYZ021-027>030-104>119-271000-
SOUTHERN WYOMING

CITY           SKY/WX    TMP DP  RH WIND       PRES   REMARKS
EVANSTON       CLOUDY     7   3  84 SW6       30.12R WCI  -3
FORT BRIDGER   CLOUDY    10   6  85 W12       30.13R WCI  -5
ROCK SPRINGS   CLOUDY     5   2  87 SW9       30.09R WCI  -9
DIXON          LGT SNOW   2  -2  83 CALM      30.14R
RAWLINS        MOCLDY    -3  -7  82 CALM      30.07R
SARATOGA       CLOUDY     1   0  92 CALM      30.06R
LARAMIE        FAIR      -5  -7  91 SE7       30.00R WCI -19
CHEYENNE       FAIR       6  -1  73 NW10      30.02R WCI  -9
TORRINGTON     FAIR       7   4  87 W7        30.11R WCI  -5
PINE BLUFFS    FAIR      -4  -8  84 MISG      30.09R

$$



USA.gov is the U.S. government's official web portal to all federal, state and local government web resources and services.